Time,TemperatureF,DewpointF,PressureIn,WindDirection,WindDirectionDegrees,WindSpeedMPH,WindSpeedGustMPH,Humidity,HourlyPrecipIn,Conditions,Clouds,dailyrainin,SolarRadiationWatts/m^2,SoftwareType,DateUTC
2013-04-28 00:03:00,55.0,-99.9,-100.00,East,82,2.0,6.0,97,0.00,,,0.59,0.000000,,2013-04-28 04:03:00,
2013-04-28 00:13:00,55.0,54.0,-100.00,East,82,2.0,6.0,97,0.00,,,0.59,0.000000,,2013-04-28 04:13:00,
2013-04-28 00:23:00,55.0,54.0,-100.00,East,82,2.0,6.0,97,0.00,,,0.59,0.000000,,2013-04-28 04:23:00,
2013-04-28 00:31:00,55.0,54.0,-100.00,SSW,198,0.0,5.0,97,0.00,,,0.59,0.000000,,2013-04-28 04:31:00,
2013-04-28 00:53:00,55.0,54.0,-100.00,SSW,198,0.0,5.0,97,0.00,,,0.59,0.000000,,2013-04-28 04:53:00,
2013-04-28 01:02:00,55.0,54.0,-100.00,SSW,198,0.0,5.0,97,0.00,,,0.59,0.000000,,2013-04-28 05:02:00,
2013-04-28 01:12:00,55.0,54.0,-100.00,SSW,198,0.0,5.0,97,0.00,,,0.59,0.000000,,2013-04-28 05:12:00,
2013-04-28 01:22:00,55.0,54.0,-100.00,SSW,198,0.0,5.0,97,0.00,,,0.59,0.000000,,2013-04-28 05:22:00,
2013-04-28 01:31:00,54.0,54.0,-100.00,ENE,70,0.0,2.0,99,0.00,,,0.59,0.000000,,2013-04-28 05:31:00,
2013-04-28 01:52:00,54.0,54.0,-100.00,ENE,70,0.0,2.0,99,0.00,,,0.59,0.000000,,2013-04-28 05:52:00,
2013-04-28 02:01:00,54.0,54.0,-100.00,ENE,70,0.0,2.0,99,0.00,,,0.59,0.000000,,2013-04-28 06:01:00,
2013-04-28 02:13:00,54.0,54.0,-100.00,ENE,70,0.0,2.0,99,0.00,,,0.59,0.000000,,2013-04-28 06:13:00,
2013-04-28 02:21:00,54.0,54.0,-100.00,ENE,70,0.0,2.0,99,0.00,,,0.59,0.000000,,2013-04-28 06:21:00,
2013-04-28 02:31:00,54.0,54.0,-100.00,ENE,71,0.0,3.0,99,0.00,,,0.59,0.000000,,2013-04-28 06:31:00,
2013-04-28 02:52:00,54.0,54.0,-100.00,ENE,71,0.0,3.0,99,0.00,,,0.59,0.000000,,2013-04-28 06:52:00,
2013-04-28 03:02:00,54.0,54.0,-100.00,ENE,71,0.0,3.0,99,0.00,,,0.59,0.000000,,2013-04-28 07:02:00,
2013-04-28 03:11:00,54.0,54.0,-100.00,ENE,71,0.0,3.0,99,0.00,,,0.59,0.000000,,2013-04-28 07:11:00,
2013-04-28 03:21:00,54.0,54.0,-100.00,ENE,71,0.0,3.0,99,0.00,,,0.59,0.000000,,2013-04-28 07:21:00,
2013-04-28 03:31:00,54.0,54.0,-100.00,WSW,237,0.0,0.0,99,0.00,,,0.59,0.000000,,2013-04-28 07:31:00,
2013-04-28 03:52:00,54.0,54.0,-100.00,WSW,237,0.0,0.0,99,0.00,,,0.59,0.000000,,2013-04-28 07:52:00,
2013-04-28 04:02:00,54.0,54.0,-100.00,WSW,237,0.0,0.0,99,0.00,,,0.59,0.000000,,2013-04-28 08:02:00,
2013-04-28 04:12:00,54.0,54.0,-100.00,WSW,237,0.0,0.0,99,0.00,,,0.59,0.000000,,2013-04-28 08:12:00,
2013-04-28 04:21:00,54.0,54.0,-100.00,WSW,237,0.0,0.0,99,0.00,,,0.59,0.000000,,2013-04-28 08:21:00,
2013-04-28 04:31:00,54.0,54.0,-100.00,ESE,105,1.0,3.0,100,0.00,,,0.59,0.000000,,2013-04-28 08:31:00,
2013-04-28 04:52:00,54.0,54.0,-100.00,ESE,105,1.0,3.0,100,0.00,,,0.59,0.000000,,2013-04-28 08:52:00,
2013-04-28 05:01:00,54.0,54.0,-100.00,ESE,105,1.0,3.0,100,0.00,,,0.59,0.000000,,2013-04-28 09:01:00,
2013-04-28 05:12:00,54.0,54.0,-100.00,ESE,105,1.0,3.0,100,0.00,,,0.59,0.000000,,2013-04-28 09:12:00,
2013-04-28 05:22:00,54.0,54.0,-100.00,ESE,105,1.0,3.0,100,0.00,,,0.59,0.000000,,2013-04-28 09:22:00,
2013-04-28 05:31:00,54.0,54.0,-100.00,ESE,121,0.0,3.0,100,0.01,,,0.60,0.000000,,2013-04-28 09:31:00,
2013-04-28 05:53:00,54.0,54.0,-100.00,ESE,121,0.0,3.0,100,0.01,,,0.60,0.000000,,2013-04-28 09:53:00,
2013-04-28 06:03:00,54.0,54.0,-100.00,ESE,121,0.0,3.0,100,0.01,,,0.60,0.000000,,2013-04-28 10:03:00,
2013-04-28 06:12:00,54.0,54.0,-100.00,ESE,121,0.0,3.0,100,0.01,,,0.60,0.000000,,2013-04-28 10:12:00,
2013-04-28 06:23:00,54.0,54.0,-100.00,ESE,121,0.0,3.0,100,0.01,,,0.60,0.000000,,2013-04-28 10:23:00,
2013-04-28 06:31:00,53.0,53.0,-100.00,ENE,58,0.0,3.0,100,0.02,,,0.62,0.000000,,2013-04-28 10:31:00,
2013-04-28 06:53:00,53.0,53.0,-100.00,ENE,58,0.0,3.0,100,0.02,,,0.62,0.000000,,2013-04-28 10:53:00,
2013-04-28 07:02:00,53.0,53.0,-100.00,ENE,58,0.0,3.0,100,0.02,,,0.62,0.000000,,2013-04-28 11:02:00,
2013-04-28 07:11:00,53.0,53.0,-100.00,ENE,58,0.0,3.0,100,0.02,,,0.62,0.000000,,2013-04-28 11:11:00,
2013-04-28 07:22:00,53.0,53.0,-100.00,ENE,58,0.0,3.0,100,0.02,,,0.62,0.000000,,2013-04-28 11:22:00,
2013-04-28 07:31:00,53.0,53.0,-100.00,NNW,345,1.0,5.0,99,0.00,,,0.62,7.000000,,2013-04-28 11:31:00,
2013-04-28 07:52:00,53.0,53.0,-100.00,NNW,345,1.0,5.0,99,0.00,,,0.62,7.000000,,2013-04-28 11:52:00,
2013-04-28 08:02:00,53.0,53.0,-100.00,NNW,345,1.0,5.0,99,0.00,,,0.62,7.000000,,2013-04-28 12:02:00,
2013-04-28 08:12:00,53.0,53.0,-100.00,NNW,345,1.0,5.0,99,0.00,,,0.62,7.000000,,2013-04-28 12:12:00,
2013-04-28 08:22:00,53.0,53.0,-100.00,NNW,345,1.0,5.0,99,0.00,,,0.62,7.000000,,2013-04-28 12:22:00,
2013-04-28 08:31:00,54.0,53.0,-100.00,SSE,153,1.0,6.0,98,0.03,,,0.65,26.000000,,2013-04-28 12:31:00,
2013-04-28 08:52:00,54.0,53.0,-100.00,SSE,153,1.0,6.0,98,0.03,,,0.65,26.000000,,2013-04-28 12:52:00,
2013-04-28 09:02:00,54.0,53.0,-100.00,SSE,153,1.0,6.0,98,0.03,,,0.65,26.000000,,2013-04-28 13:02:00,
2013-04-28 09:11:00,54.0,53.0,-100.00,SSE,153,1.0,6.0,98,0.03,,,0.65,26.000000,,2013-04-28 13:11:00,
2013-04-28 09:21:00,54.0,53.0,-100.00,SSE,153,1.0,6.0,98,0.03,,,0.65,26.000000,,2013-04-28 13:21:00,
2013-04-28 09:31:00,55.0,54.0,-100.00,ENE,62,1.0,5.0,97,0.01,,,0.66,65.000000,,2013-04-28 13:31:00,
2013-04-28 09:52:00,55.0,54.0,-100.00,ENE,62,1.0,5.0,97,0.01,,,0.66,65.000000,,2013-04-28 13:52:00,
2013-04-28 10:02:00,55.0,54.0,-100.00,ENE,62,1.0,5.0,97,0.01,,,0.66,65.000000,,2013-04-28 14:02:00,
2013-04-28 10:11:00,55.0,54.0,-100.00,ENE,62,1.0,5.0,97,0.01,,,0.66,65.000000,,2013-04-28 14:11:00,
2013-04-28 10:22:00,55.0,54.0,-100.00,ENE,62,1.0,5.0,97,0.01,,,0.66,65.000000,,2013-04-28 14:22:00,
2013-04-28 10:31:00,55.0,54.0,-100.00,WNW,288,1.0,5.0,98,0.03,,,0.69,67.000000,,2013-04-28 14:31:00,
2013-04-28 10:52:00,55.0,54.0,-100.00,WNW,288,1.0,5.0,98,0.03,,,0.69,67.000000,,2013-04-28 14:52:00,
2013-04-28 11:02:00,55.0,54.0,-100.00,WNW,288,1.0,5.0,98,0.03,,,0.69,67.000000,,2013-04-28 15:02:00,
2013-04-28 11:12:00,55.0,54.0,-100.00,WNW,288,1.0,5.0,98,0.03,,,0.69,67.000000,,2013-04-28 15:12:00,
2013-04-28 11:21:00,55.0,54.0,-100.00,WNW,288,1.0,5.0,98,0.03,,,0.69,67.000000,,2013-04-28 15:21:00,
2013-04-28 11:31:00,55.0,55.0,-100.00,NW,310,1.0,3.0,99,0.17,,,0.86,53.000000,,2013-04-28 15:31:00,
2013-04-28 11:53:00,55.0,55.0,-100.00,NW,310,1.0,3.0,99,0.17,,,0.86,53.000000,,2013-04-28 15:53:00,
2013-04-28 12:03:00,55.0,55.0,-100.00,NW,310,1.0,3.0,99,0.17,,,0.86,53.000000,,2013-04-28 16:03:00,
2013-04-28 12:13:00,55.0,55.0,-100.00,NW,310,1.0,3.0,99,0.17,,,0.86,53.000000,,2013-04-28 16:13:00,
2013-04-28 12:23:00,55.0,55.0,-100.00,NW,310,1.0,3.0,99,0.17,,,0.86,53.000000,,2013-04-28 16:23:00,
2013-04-28 12:31:00,55.0,55.0,-100.00,NW,324,2.0,4.0,99,0.23,,,1.09,29.000000,,2013-04-28 16:31:00,
2013-04-28 12:52:00,55.0,55.0,-100.00,NW,324,2.0,4.0,99,0.23,,,1.09,29.000000,,2013-04-28 16:52:00,
2013-04-28 13:02:00,55.0,55.0,-100.00,NW,324,2.0,4.0,99,0.23,,,1.09,29.000000,,2013-04-28 17:02:00,
2013-04-28 13:12:00,55.0,55.0,-100.00,NW,324,2.0,4.0,99,0.23,,,1.09,29.000000,,2013-04-28 17:12:00,
2013-04-28 13:22:00,55.0,55.0,-100.00,NW,324,2.0,4.0,99,0.23,,,1.09,29.000000,,2013-04-28 17:22:00,
2013-04-28 13:31:00,54.0,54.0,-100.00,NNW,338,2.0,7.0,99,0.42,,,1.51,28.000000,,2013-04-28 17:31:00,
2013-04-28 13:52:00,54.0,54.0,-100.00,NNW,338,2.0,7.0,99,0.42,,,1.51,28.000000,,2013-04-28 17:52:00,
2013-04-28 14:02:00,54.0,54.0,-100.00,NNW,338,2.0,7.0,99,0.42,,,1.51,28.000000,,2013-04-28 18:02:00,
2013-04-28 14:12:00,54.0,54.0,-100.00,NNW,338,2.0,7.0,99,0.42,,,1.51,28.000000,,2013-04-28 18:12:00,
2013-04-28 14:22:00,54.0,54.0,-100.00,NNW,338,2.0,7.0,99,0.42,,,1.51,28.000000,,2013-04-28 18:22:00,
2013-04-28 14:31:00,55.0,55.0,-100.00,NNW,329,2.0,7.0,99,0.32,,,1.82,51.000000,,2013-04-28 18:31:00,
2013-04-28 14:52:00,55.0,55.0,-100.00,NNW,329,2.0,7.0,99,0.32,,,1.82,51.000000,,2013-04-28 18:52:00,
2013-04-28 15:02:00,55.0,55.0,-100.00,NNW,329,2.0,7.0,99,0.32,,,1.82,51.000000,,2013-04-28 19:02:00,
2013-04-28 15:11:00,55.0,55.0,-100.00,NNW,329,2.0,7.0,99,0.32,,,1.82,51.000000,,2013-04-28 19:11:00,
2013-04-28 15:22:00,55.0,55.0,-100.00,NNW,329,2.0,7.0,99,0.32,,,1.82,51.000000,,2013-04-28 19:22:00,
2013-04-28 15:31:00,55.0,55.0,-100.00,North,350,2.0,10.0,99,0.25,,,2.00,53.000000,,2013-04-28 19:31:00,
2013-04-28 15:52:00,55.0,55.0,-100.00,North,350,2.0,10.0,99,0.25,,,2.00,53.000000,,2013-04-28 19:52:00,
2013-04-28 16:02:00,55.0,55.0,-100.00,North,350,2.0,10.0,99,0.25,,,2.00,53.000000,,2013-04-28 20:02:00,
2013-04-28 16:12:00,55.0,55.0,-100.00,North,350,2.0,10.0,99,0.25,,,2.00,53.000000,,2013-04-28 20:12:00,
2013-04-28 16:22:00,55.0,55.0,-100.00,North,350,2.0,10.0,99,0.25,,,2.00,53.000000,,2013-04-28 20:22:00,
2013-04-28 16:31:00,55.0,55.0,-100.00,NNW,328,2.0,7.0,99,0.27,,,2.08,41.000000,,2013-04-28 20:31:00,
2013-04-28 16:52:00,55.0,55.0,-100.00,NNW,328,2.0,7.0,99,0.27,,,2.08,41.000000,,2013-04-28 20:52:00,
2013-04-28 17:01:00,55.0,55.0,-100.00,NNW,328,2.0,7.0,99,0.27,,,2.08,41.000000,,2013-04-28 21:01:00,
2013-04-28 17:12:00,55.0,55.0,-100.00,NNW,328,2.0,7.0,99,0.27,,,2.08,41.000000,,2013-04-28 21:12:00,
2013-04-28 17:22:00,55.0,55.0,-100.00,NNW,328,2.0,7.0,99,0.27,,,2.08,41.000000,,2013-04-28 21:22:00,
2013-04-28 17:31:00,55.0,55.0,-100.00,NNE,16,1.0,5.0,100,0.37,,,2.32,26.000000,,2013-04-28 21:31:00,
2013-04-28 17:53:00,55.0,55.0,-100.00,NNE,16,1.0,5.0,100,0.37,,,2.32,26.000000,,2013-04-28 21:53:00,
2013-04-28 18:03:00,55.0,55.0,-100.00,NNE,16,1.0,5.0,100,0.37,,,2.32,26.000000,,2013-04-28 22:03:00,
2013-04-28 18:13:00,55.0,55.0,-100.00,NNE,16,1.0,5.0,100,0.37,,,2.32,26.000000,,2013-04-28 22:13:00,
2013-04-28 18:23:00,55.0,55.0,-100.00,NNE,16,1.0,5.0,100,0.37,,,2.32,26.000000,,2013-04-28 22:23:00,
2013-04-28 18:31:00,56.0,56.0,-100.00,ENE,75,2.0,8.0,99,0.06,,,2.33,58.000000,,2013-04-28 22:31:00,
2013-04-28 18:52:00,56.0,56.0,-100.00,ENE,75,2.0,8.0,99,0.06,,,2.33,58.000000,,2013-04-28 22:52:00,
2013-04-28 19:02:00,56.0,56.0,-100.00,ENE,75,2.0,8.0,99,0.06,,,2.33,58.000000,,2013-04-28 23:02:00,
2013-04-28 19:12:00,56.0,56.0,-100.00,ENE,75,2.0,8.0,99,0.06,,,2.33,58.000000,,2013-04-28 23:12:00,
2013-04-28 19:22:00,56.0,56.0,-100.00,ENE,75,2.0,8.0,99,0.06,,,2.33,58.000000,,2013-04-28 23:22:00,
2013-04-28 19:31:00,55.0,55.0,-100.00,NE,36,1.0,8.0,99,0.07,,,2.37,16.000000,,2013-04-28 23:31:00,
2013-04-28 19:52:00,55.0,55.0,-100.00,NE,36,1.0,8.0,99,0.07,,,2.37,16.000000,,2013-04-28 23:52:00,
2013-04-28 20:01:00,55.0,55.0,-100.00,NE,36,1.0,8.0,99,0.07,,,2.37,16.000000,,2013-04-29 00:01:00,
2013-04-28 20:11:00,55.0,55.0,-100.00,NE,36,1.0,8.0,99,0.07,,,2.37,16.000000,,2013-04-29 00:11:00,
2013-04-28 20:22:00,55.0,55.0,-100.00,NE,36,1.0,8.0,99,0.07,,,2.37,16.000000,,2013-04-29 00:22:00,
2013-04-28 20:31:00,55.0,55.0,-100.00,NNW,342,0.0,0.0,100,0.05,,,2.35,2.000000,,2013-04-29 00:31:00,
2013-04-28 20:52:00,55.0,55.0,-100.00,NNW,342,0.0,0.0,100,0.05,,,2.35,2.000000,,2013-04-29 00:52:00,
2013-04-28 21:01:00,55.0,55.0,-100.00,NNW,342,0.0,0.0,100,0.05,,,2.35,2.000000,,2013-04-29 01:01:00,
2013-04-28 21:12:00,55.0,55.0,-100.00,NNW,342,0.0,0.0,100,0.05,,,2.35,2.000000,,2013-04-29 01:12:00,
2013-04-28 21:22:00,55.0,55.0,-100.00,NNW,342,0.0,0.0,100,0.05,,,2.35,2.000000,,2013-04-29 01:22:00,
2013-04-28 21:31:00,55.0,55.0,-100.00,North,4,0.0,0.0,100,0.02,,,2.33,0.000000,,2013-04-29 01:31:00,
2013-04-28 21:52:00,55.0,55.0,-100.00,North,4,0.0,0.0,100,0.02,,,2.33,0.000000,,2013-04-29 01:52:00,
2013-04-28 22:02:00,55.0,55.0,-100.00,North,4,0.0,0.0,100,0.02,,,2.33,0.000000,,2013-04-29 02:02:00,
2013-04-28 22:11:00,55.0,55.0,-100.00,North,4,0.0,0.0,100,0.02,,,2.33,0.000000,,2013-04-29 02:11:00,
2013-04-28 22:22:00,55.0,55.0,-100.00,North,4,0.0,0.0,100,0.02,,,2.33,0.000000,,2013-04-29 02:22:00,
2013-04-28 22:31:00,55.0,55.0,-100.00,East,94,1.0,5.0,100,0.00,,,2.33,0.000000,,2013-04-29 02:31:00,
2013-04-28 22:52:00,55.0,55.0,-100.00,East,94,1.0,5.0,100,0.00,,,2.33,0.000000,,2013-04-29 02:52:00,
2013-04-28 23:02:00,55.0,55.0,-100.00,East,94,1.0,5.0,100,0.00,,,2.33,0.000000,,2013-04-29 03:02:00,
2013-04-28 23:12:00,55.0,55.0,-100.00,East,94,1.0,5.0,100,0.00,,,2.33,0.000000,,2013-04-29 03:12:00,
2013-04-28 23:22:00,55.0,55.0,-100.00,East,94,1.0,5.0,100,0.00,,,2.33,0.000000,,2013-04-29 03:22:00,
2013-04-28 23:31:00,56.0,56.0,-100.00,SE,128,1.0,6.0,100,0.00,,,2.33,0.000000,,2013-04-29 03:31:00,
2013-04-28 23:53:00,56.0,56.0,-100.00,SE,128,1.0,6.0,100,0.00,,,2.33,0.000000,,2013-04-29 03:53:00,